Location: Oshawa
(43.9000°N, 78.8670°W)
Time: 14:26:17
(UTC-05:00)

PAYLOAD A - Visible Passes

Search period start: 22 December 2014 00:00
Search period end: 01 January 2015 00:00
Orbit: 693 x 832 km, 98.2° (Epoch: 21 December)

Date Brightness Start Highest point End Pass type
(mag) Time Alt. Az. Time Alt. Az. Time Alt. Az.
22 Dec 7.1 06:20:02 10° NE 06:23:07 15° E 06:26:12 10° SE visible
22 Dec 5.1 17:35:38 10° ESE 17:39:18 22° ENE 17:43:04 10° NNE visible
22 Dec 4.8 19:13:13 10° S 19:17:53 49° W 19:22:46 10° NNW visible
23 Dec 3.8 18:35:28 10° SSE 18:40:18 75° ENE 18:45:22 10° N visible
23 Dec 6.9 20:17:40 10° WSW 20:19:54 13° W 20:22:11 10° WNW visible
24 Dec 6.6 06:42:54 10° NE 06:47:18 25° E 06:51:42 10° SSE visible
24 Dec 4.5 17:58:33 10° SE 18:02:57 34° ENE 18:07:31 10° N visible
24 Dec 5.8 19:37:42 10° SSW 19:41:56 29° W 19:46:20 10° NW visible
25 Dec 7.4 06:07:41 10° ENE 06:09:20 11° E 06:10:59 10° ESE visible
25 Dec 5.3 17:22:40 10° E 17:25:50 17° ENE 17:29:03 10° NNE visible
25 Dec 4.3 18:59:21 10° S 19:04:12 66° WSW 19:09:17 10° NNW visible
26 Dec 5.8 07:06:19 10° NNE 07:11:24 40° E 07:16:28 10° SSE visible
26 Dec 4.0 18:21:54 10° SSE 18:26:42 57° ENE 18:31:43 10° N visible
26 Dec 6.5 20:02:46 10° SW 20:06:05 18° W 20:09:29 10° NW visible
27 Dec 7.0 06:29:46 10° NE 06:33:35 19° E 06:37:22 10° SE visible
27 Dec 4.8 17:45:18 10° ESE 17:49:26 27° ENE 17:53:42 10° N visible
27 Dec 5.3 19:23:36 10° SSW 19:28:11 39° W 19:32:59 10° NNW visible
28 Dec 3.9 18:45:36 10° SSE 18:50:32 87° WSW 18:55:44 10° NNW visible
28 Dec 7.1 20:29:36 10° W 20:30:19 10° W 20:31:02 10° WNW visible
29 Dec 6.3 06:52:57 10° NNE 06:57:44 31° E 07:02:28 10° SSE visible
29 Dec 4.3 18:08:27 10° SE 18:13:08 43° ENE 18:18:01 10° N visible
29 Dec 6.1 19:48:18 10° SW 19:52:17 24° W 19:56:25 10° NW visible
30 Dec 7.1 06:16:53 10° NE 06:19:49 15° E 06:22:43 10° ESE visible
30 Dec 5.1 17:32:12 10° ESE 17:35:57 22° ENE 17:39:48 10° NNE visible
30 Dec 4.7 19:09:38 10° S 19:14:29 52° W 19:19:34 10° NNW visible
31 Dec 5.3 07:16:30 10° NNE 07:21:48 50° E 07:27:01 10° S visible
31 Dec 3.9 18:31:57 10° SSE 18:36:55 72° ENE 18:42:08 10° N visible
31 Dec 6.8 20:13:45 10° WSW 20:16:29 15° W 20:19:16 10° NW visible
